Weather History for KONZ - March, 2013

Change the Weather History Date:

Tuesday, March 19, 2013

  Actual Average (KDTW) Record (KDTW)
Temperature  
Mean Temperature 30 °F 38 °F  
Max Temperature 35 °F 47 °F 76 °F (1921)
Min Temperature 24 °F 30 °F 4 °F (1885)
Degree Days  
Heating Degree Days 36 27  
Month to date heating degree days 573  
Since 1 July heating degree days 5126  
Cooling Degree Days 0 0  
Month to date cooling degree days 0  
Year to date cooling degree days 0  
Moisture  
Dew Point 18 °F    
Average Humidity 65    
Maximum Humidity 81    
Minimum Humidity 51    
Precipitation  
Precipitation 0.00 in 0.07 in 0.93 in (1881)
Month to date precipitation 1.34  
Year to date precipitation 5.32  
Snow  
Snow 0.00 in 0.20 in 7.50 in (1883)
Month to date snowfall 5.0  
Since 1 July snowfall 38.9  
Snow Depth -    
Sea Level Pressure  
Sea Level Pressure 29.78 in    
Wind  
Wind Speed 15 mph (WSW)    
Max Wind Speed 25 mph    
Max Gust Speed 33 mph    
Visibility 10 miles    
Events Snow    
T = Trace of Precipitation, MM = Missing Value Source: NWS Daily Summary

Daily Weather History Graph

Daily Weather History Graph

Search for Another Location

Airport or City:

Trip Planner

Search our weather history database for the weather conditions in past years. The results will help you decide how hot, cold, wet, or windy it might be!

Date:

Astronomy

Mar. 19, 2013 Rise Set
Actual Time 7:37 AM EDT 7:44 PM EDT
Civil Twilight 7:09 AM EDT 8:11 PM EDT
Nautical Twilight 6:36 AM EDT 8:44 PM EDT
Astronomical Twilight 6:03 AM EDT 9:17 PM EDT
Moon 12:20 PM EDT (3/19) 2:35 AM EDT (3/19)
Length of Visible Light 13h 02m
Length of Day
12h 06m
Waxing Crescent, 49% of the Moon is Illuminated
Mar 19
Waxing Crescent
Mar 19
First Quarter
Mar 27
Full
Apr 3
Last Quarter
Apr 10
New

Hourly Weather History & Observations

Time (EDT) Temp. Windchill Dew Point Humidity Pressure Visibility Wind Dir Wind Speed Gust Speed Precip Events Conditions
12:14 AM 35.6 °F 27.5 °F 30.2 °F 81% 29.63 in 10.0 mi WSW 11.5 mph 19.6 mph N/A   Overcast
12:34 AM 35.6 °F 27.5 °F 30.2 °F 81% 29.64 in 10.0 mi WSW 11.5 mph 18.4 mph N/A   Overcast
12:54 AM 35.6 °F 26.6 °F 30.2 °F 81% 29.63 in 10.0 mi WSW 13.8 mph 18.4 mph N/A   Overcast
1:14 AM 35.6 °F 28.6 °F 30.2 °F 81% 29.63 in 10.0 mi SW 9.2 mph - N/A   Overcast
1:34 AM 35.6 °F 29.2 °F 30.2 °F 81% 29.63 in 10.0 mi SW 8.1 mph - N/A   Overcast
1:54 AM 35.6 °F 25.5 °F 30.2 °F 81% 29.63 in 10.0 mi SW 17.3 mph 24.2 mph N/A   Overcast
2:14 AM 35.6 °F 24.5 °F 26.6 °F 70% 29.62 in 10.0 mi SW 20.7 mph 32.2 mph N/A   Overcast
2:34 AM 33.8 °F 23.2 °F 24.8 °F 70% 29.63 in 10.0 mi SW 17.3 mph 28.8 mph N/A   Overcast
2:54 AM 33.8 °F 23.5 °F 24.8 °F 70% 29.63 in 10.0 mi SW 16.1 mph 25.3 mph N/A   Overcast
3:14 AM 33.8 °F 24.3 °F 24.8 °F 70% 29.64 in 10.0 mi SW 13.8 mph 21.9 mph N/A   Overcast
3:34 AM 32.0 °F 21.2 °F 24.8 °F 75% 29.65 in 10.0 mi WSW 16.1 mph 24.2 mph N/A   Overcast
3:54 AM 32.0 °F 20.8 °F 24.8 °F 75% 29.66 in 10.0 mi West 17.3 mph 25.3 mph N/A   Overcast
4:14 AM 30.2 °F 19.3 °F 21.2 °F 69% 29.67 in 10.0 mi West 15.0 mph 25.3 mph N/A   Overcast
4:35 AM 30.2 °F 20.8 °F 21.2 °F 69% 29.67 in 10.0 mi West 11.5 mph 21.9 mph N/A   Overcast
4:54 AM 30.2 °F 20.2 °F 21.2 °F 69% 29.68 in 10.0 mi West 12.7 mph 21.9 mph N/A   Overcast
5:14 AM 28.4 °F 15.8 °F 21.2 °F 74% 29.69 in 10.0 mi West 18.4 mph 25.3 mph N/A   Overcast
5:35 AM 28.4 °F 17.5 °F 17.6 °F 64% 29.70 in 10.0 mi West 13.8 mph 23.0 mph N/A   Overcast
5:54 AM 28.4 °F 16.6 °F 17.6 °F 64% 29.70 in 10.0 mi WSW 16.1 mph - N/A   Overcast
6:14 AM 28.4 °F 16.6 °F 19.4 °F 69% 29.70 in 10.0 mi WSW 16.1 mph 23.0 mph N/A Snow Light Snow
6:34 AM 28.4 °F 15.8 °F 19.4 °F 69% 29.71 in 7.0 mi WSW 18.4 mph 29.9 mph N/A Snow Light Snow
6:54 AM 26.6 °F 14.7 °F 15.8 °F 64% 29.72 in 10.0 mi WSW 15.0 mph 26.5 mph N/A   Overcast
7:14 AM 26.6 °F 13.8 °F 15.8 °F 64% 29.73 in 10.0 mi WSW 17.3 mph 23.0 mph N/A Snow Light Snow
7:34 AM 24.8 °F 11.9 °F 19.4 °F 80% 29.75 in 3.0 mi WSW 16.1 mph 19.6 mph N/A Snow Light Snow
7:54 AM 24.8 °F 13.4 °F 17.6 °F 74% 29.75 in 7.0 mi SW 12.7 mph 23.0 mph N/A Snow Light Snow
8:14 AM 24.8 °F 12.9 °F 19.4 °F 80% 29.75 in 10.0 mi WSW 13.8 mph 26.5 mph N/A Snow Light Snow
8:34 AM 24.8 °F 12.9 °F 15.8 °F 69% 29.75 in 10.0 mi WSW 13.8 mph 21.9 mph N/A Snow Light Snow
8:54 AM 24.8 °F 10.7 °F 14.0 °F 64% 29.75 in 10.0 mi WSW 19.6 mph 25.3 mph N/A   Overcast
9:14 AM 24.8 °F 12.9 °F 15.8 °F 69% 29.75 in 10.0 mi WSW 13.8 mph 21.9 mph N/A   Overcast
9:34 AM 24.8 °F 12.9 °F 15.8 °F 69% 29.75 in 10.0 mi WSW 13.8 mph 21.9 mph N/A   Overcast
9:54 AM 26.6 °F 13.1 °F 15.8 °F 64% 29.75 in 10.0 mi WSW 19.6 mph 27.6 mph N/A   Overcast
10:14 AM 26.6 °F 13.1 °F 12.2 °F 55% 29.75 in 10.0 mi West 19.6 mph 27.6 mph N/A   Overcast
10:34 AM 26.6 °F 13.8 °F 14.0 °F 59% 29.75 in 10.0 mi WSW 17.3 mph 25.3 mph N/A   Overcast
10:54 AM 24.8 °F 11.5 °F 17.6 °F 74% 29.76 in 4.0 mi WSW 17.3 mph 24.2 mph N/A Snow Light Snow
11:14 AM 24.8 °F 10.3 °F 17.6 °F 74% 29.77 in 4.0 mi WSW 20.7 mph 26.5 mph N/A Snow Light Snow
11:34 AM 24.8 °F 11.9 °F 15.8 °F 69% 29.77 in 10.0 mi WSW 16.1 mph 24.2 mph N/A Snow Light Snow
11:55 AM 26.6 °F 12.7 °F 10.4 °F 51% 29.78 in 10.0 mi West 20.7 mph 31.1 mph N/A   Overcast
12:14 PM 26.6 °F 12.4 °F 10.4 °F 51% 29.78 in 10.0 mi West 21.9 mph 32.2 mph N/A   Overcast
12:34 PM 26.6 °F 13.4 °F 12.2 °F 55% 29.79 in 10.0 mi WSW 18.4 mph 29.9 mph N/A Snow Light Snow
12:54 PM 26.6 °F 13.4 °F 14.0 °F 59% 29.79 in 10.0 mi WSW 18.4 mph 26.5 mph N/A   Overcast
1:14 PM 26.6 °F 13.1 °F 15.8 °F 64% 29.79 in 7.0 mi WSW 19.6 mph 27.6 mph N/A Snow Light Snow
1:34 PM 26.6 °F 12.7 °F 17.6 °F 69% 29.80 in 7.0 mi West 20.7 mph 26.5 mph N/A Snow Light Snow
1:54 PM 26.6 °F 13.8 °F 14.0 °F 59% 29.80 in 10.0 mi WSW 17.3 mph 31.1 mph N/A Snow Light Snow
2:14 PM 28.4 °F 16.2 °F 15.8 °F 59% 29.80 in 10.0 mi West 17.3 mph 26.5 mph N/A Snow Light Snow
2:34 PM 28.4 °F 15.8 °F 15.8 °F 59% 29.81 in 10.0 mi WSW 18.4 mph 26.5 mph N/A   Overcast
2:54 PM 28.4 °F 15.4 °F 15.8 °F 59% 29.81 in 10.0 mi WSW 19.6 mph 27.6 mph N/A   Overcast
3:14 PM 28.4 °F 14.4 °F 15.8 °F 59% 29.81 in 10.0 mi WSW 23.0 mph 29.9 mph N/A Snow Light Snow
3:34 PM 28.4 °F 14.1 °F 15.8 °F 59% 29.82 in 10.0 mi West 24.2 mph 27.6 mph N/A Snow Light Snow
3:54 PM 26.6 °F 13.8 °F 17.6 °F 69% 29.83 in 10.0 mi West 17.3 mph 28.8 mph N/A Snow Light Snow
4:14 PM 28.4 °F 15.1 °F 17.6 °F 64% 29.83 in 7.0 mi West 20.7 mph 26.5 mph N/A Snow Light Snow
4:35 PM 28.4 °F 13.8 °F 17.6 °F 64% 29.84 in 10.0 mi West 25.3 mph 33.4 mph N/A Snow Light Snow
4:54 PM 28.4 °F 14.7 °F 17.6 °F 64% 29.84 in 10.0 mi West 21.9 mph 29.9 mph N/A   Overcast
5:14 PM 28.4 °F 16.6 °F 17.6 °F 64% 29.85 in 10.0 mi WSW 16.1 mph 27.6 mph N/A Snow Light Snow
5:34 PM 28.4 °F 17.0 °F 17.6 °F 64% 29.85 in 10.0 mi West 15.0 mph 21.9 mph N/A Snow Light Snow
5:54 PM 28.4 °F 16.2 °F 17.6 °F 64% 29.86 in 10.0 mi WSW 17.3 mph 25.3 mph N/A Snow Light Snow
6:14 PM 28.4 °F 17.5 °F 17.6 °F 64% 29.86 in 10.0 mi West 13.8 mph - N/A   Overcast
6:34 PM 30.2 °F 20.2 °F 15.8 °F 55% 29.87 in 10.0 mi West 12.7 mph 19.6 mph N/A   Overcast
6:54 PM 30.2 °F 18.9 °F 15.8 °F 55% 29.87 in 10.0 mi West 16.1 mph 23.0 mph N/A   Overcast
7:14 PM 30.2 °F 18.9 °F 15.8 °F 55% 29.88 in 10.0 mi West 16.1 mph 21.9 mph N/A   Overcast
7:34 PM 30.2 °F 18.9 °F 15.8 °F 55% 29.88 in 10.0 mi West 16.1 mph 25.3 mph N/A   Overcast
7:54 PM 30.2 °F 19.3 °F 15.8 °F 55% 29.89 in 10.0 mi West 15.0 mph 21.9 mph N/A   Overcast
8:14 PM 30.2 °F 20.2 °F 15.8 °F 55% 29.90 in 10.0 mi West 12.7 mph 20.7 mph N/A   Overcast
8:34 PM 30.2 °F 21.3 °F 15.8 °F 55% 29.91 in 10.0 mi West 10.4 mph 20.7 mph N/A   Overcast
8:54 PM 30.2 °F 20.8 °F 15.8 °F 55% 29.92 in 10.0 mi West 11.5 mph 18.4 mph N/A   Overcast
9:15 PM 30.2 °F 19.8 °F 15.8 °F 55% 29.92 in 10.0 mi West 13.8 mph - N/A   Overcast
9:34 PM 28.4 °F 19.7 °F 15.8 °F 59% 29.93 in 10.0 mi West 9.2 mph - N/A   Scattered Clouds
9:54 PM 28.4 °F 20.4 °F 15.8 °F 59% 29.93 in 10.0 mi West 8.1 mph - N/A   Clear
10:14 PM 28.4 °F 19.1 °F 15.8 °F 59% 29.93 in 10.0 mi West 10.4 mph 18.4 mph N/A   Clear
10:34 PM 28.4 °F 20.4 °F 15.8 °F 59% 29.93 in 10.0 mi West 8.1 mph - N/A   Clear
10:54 PM 28.4 °F 19.1 °F 15.8 °F 59% 29.93 in 10.0 mi West 10.4 mph 18.4 mph N/A   Clear
11:14 PM 28.4 °F 18.0 °F 14.0 °F 55% 29.93 in 10.0 mi West 12.7 mph 24.2 mph N/A   Clear
11:34 PM 28.4 °F 17.0 °F 14.0 °F 55% 29.93 in 10.0 mi West 15.0 mph 20.7 mph N/A   Clear
11:54 PM 28.4 °F 18.5 °F 14.0 °F 55% 29.93 in 10.0 mi West 11.5 mph 17.3 mph N/A   Clear